Time,TemperatureF,DewpointF,PressureIn,WindDirection,WindDirectionDegrees,WindSpeedMPH,WindSpeedGustMPH,Humidity,HourlyPrecipIn,Conditions,Clouds,dailyrainin,SoftwareType,DateUTC
2013-05-16 00:06:00,36.7,19.0,29.64,SE,144,0.0,0.0,48,0.00,,,0.00,weatherlink.com 1.10,2013-05-16 08:06:00,
2013-05-16 00:21:00,36.9,18.0,29.64,NE,36,0.0,0.0,47,0.00,,,0.00,weatherlink.com 1.10,2013-05-16 08:21:00,
2013-05-16 00:36:00,36.6,17.0,29.64,SSW,201,0.0,1.0,46,0.00,,,0.00,weatherlink.com 1.10,2013-05-16 08:36:00,
2013-05-16 00:51:00,37.0,18.0,29.64,WSW,256,0.0,5.0,46,0.00,,,0.00,weatherlink.com 1.10,2013-05-16 08:51:00,
2013-05-16 01:06:00,36.9,18.0,29.64,SW,228,0.0,2.0,46,0.00,,,0.00,weatherlink.com 1.10,2013-05-16 09:06:00,
2013-05-16 01:21:00,36.7,18.0,29.64,ESE,118,2.0,3.0,47,0.00,,,0.00,weatherlink.com 1.10,2013-05-16 09:21:00,
2013-05-16 01:36:00,36.4,18.0,29.65,SE,146,1.0,4.0,48,0.00,,,0.00,weatherlink.com 1.10,2013-05-16 09:36:00,
2013-05-16 01:51:00,36.3,18.0,29.64,SE,139,1.0,4.0,48,0.00,,,0.00,weatherlink.com 1.10,2013-05-16 09:51:00,
2013-05-16 02:06:00,36.3,19.0,29.64,SE,133,1.0,3.0,49,0.00,,,0.00,weatherlink.com 1.10,2013-05-16 10:06:00,
2013-05-16 02:22:00,36.1,18.0,29.64,East,86,1.0,3.0,49,0.00,,,0.00,weatherlink.com 1.10,2013-05-16 10:22:00,
2013-05-16 02:37:00,35.7,18.0,29.64,East,94,0.0,1.0,49,0.00,,,0.00,weatherlink.com 1.10,2013-05-16 10:37:00,
2013-05-16 02:52:00,35.6,18.0,29.64,ENE,77,3.0,3.0,50,0.00,,,0.00,weatherlink.com 1.10,2013-05-16 10:52:00,
2013-05-16 03:07:00,35.4,18.0,29.64,ENE,68,3.0,3.0,50,0.00,,,0.00,weatherlink.com 1.10,2013-05-16 11:07:00,
2013-05-16 03:22:00,35.6,18.0,29.64,ESE,117,0.0,0.0,49,0.00,,,0.00,weatherlink.com 1.10,2013-05-16 11:22:00,
2013-05-16 03:37:00,35.3,18.0,29.64,ESE,117,1.0,2.0,50,0.00,,,0.00,weatherlink.com 1.10,2013-05-16 11:37:00,
2013-05-16 03:52:00,34.6,18.0,29.65,ESE,110,2.0,2.0,51,0.00,,,0.00,weatherlink.com 1.10,2013-05-16 11:52:00,
2013-05-16 04:07:00,34.0,18.0,29.65,East,98,0.0,2.0,52,0.00,,,0.00,weatherlink.com 1.10,2013-05-16 12:07:00,
2013-05-16 04:22:00,33.7,18.0,29.65,ENE,75,0.0,2.0,53,0.00,,,0.00,weatherlink.com 1.10,2013-05-16 12:22:00,
2013-05-16 04:37:00,33.5,18.0,29.65,East,79,1.0,5.0,53,0.00,,,0.00,weatherlink.com 1.10,2013-05-16 12:37:00,
2013-05-16 04:52:00,33.0,18.0,29.65,NNW,345,0.0,1.0,54,0.00,,,0.00,weatherlink.com 1.10,2013-05-16 12:52:00,
2013-05-16 05:07:00,32.5,18.0,29.65,NE,44,0.0,0.0,55,0.00,,,0.00,weatherlink.com 1.10,2013-05-16 13:07:00,
2013-05-16 05:22:00,34.5,18.0,29.65,East,88,2.0,3.0,52,0.00,,,0.00,weatherlink.com 1.10,2013-05-16 13:22:00,
2013-05-16 05:37:00,35.4,18.0,29.65,ESE,109,1.0,3.0,50,0.00,,,0.00,weatherlink.com 1.10,2013-05-16 13:37:00,
2013-05-16 05:52:00,35.5,18.0,29.65,East,101,2.0,3.0,50,0.00,,,0.00,weatherlink.com 1.10,2013-05-16 13:52:00,
2013-05-16 06:07:00,35.6,19.0,29.65,East,80,3.0,3.0,51,0.00,,,0.00,weatherlink.com 1.10,2013-05-16 14:07:00,
2013-05-16 06:22:00,34.9,19.0,29.65,ESE,122,0.0,2.0,52,0.00,,,0.00,weatherlink.com 1.10,2013-05-16 14:22:00,
2013-05-16 06:37:00,35.2,20.0,29.65,East,97,0.0,2.0,54,0.00,,,0.00,weatherlink.com 1.10,2013-05-16 14:37:00,
2013-05-16 06:52:00,37.0,21.0,29.65,ESE,120,1.0,2.0,53,0.00,,,0.00,weatherlink.com 1.10,2013-05-16 14:52:00,
2013-05-16 07:07:00,35.9,21.0,29.65,SE,145,0.0,3.0,56,0.00,,,0.00,weatherlink.com 1.10,2013-05-16 15:07:00,
2013-05-16 07:22:00,36.7,21.0,29.64,SE,145,0.0,0.0,54,0.00,,,0.00,weatherlink.com 1.10,2013-05-16 15:22:00,
2013-05-16 07:37:00,36.3,21.0,29.64,SW,222,0.0,1.0,55,0.00,,,0.00,weatherlink.com 1.10,2013-05-16 15:37:00,
2013-05-16 07:52:00,36.1,22.0,29.64,WNW,285,0.0,1.0,57,0.00,,,0.00,weatherlink.com 1.10,2013-05-16 15:52:00,
2013-05-16 08:07:00,36.5,22.0,29.63,WNW,287,0.0,2.0,57,0.00,,,0.00,weatherlink.com 1.10,2013-05-16 16:07:00,
2013-05-16 08:22:00,36.6,22.0,29.63,WNW,301,1.0,2.0,56,0.00,,,0.00,weatherlink.com 1.10,2013-05-16 16:22:00,
2013-05-16 08:37:00,38.0,23.0,29.63,ESE,107,0.0,2.0,55,0.00,,,0.00,weatherlink.com 1.10,2013-05-16 16:37:00,
2013-05-16 08:52:00,39.2,23.0,29.63,NNE,16,1.0,3.0,53,0.00,,,0.00,weatherlink.com 1.10,2013-05-16 16:52:00,
2013-05-16 09:07:00,38.8,22.0,29.63,SE,125,1.0,4.0,52,0.00,,,0.00,weatherlink.com 1.10,2013-05-16 17:07:00,
2013-05-16 09:22:00,39.3,22.0,29.62,ENE,68,2.0,6.0,50,0.00,,,0.00,weatherlink.com 1.10,2013-05-16 17:22:00,
2013-05-16 09:37:00,41.3,23.0,29.61,East,88,4.0,7.0,48,0.00,,,0.00,weatherlink.com 1.10,2013-05-16 17:37:00,
2013-05-16 09:52:00,43.2,23.0,29.61,SSE,157,4.0,8.0,45,0.00,,,0.00,weatherlink.com 1.10,2013-05-16 17:52:00,
2013-05-16 10:07:00,44.1,24.0,29.61,ESE,120,3.0,5.0,45,0.00,,,0.00,weatherlink.com 1.10,2013-05-16 18:07:00,
2013-05-16 10:23:00,44.3,23.0,29.60,East,94,4.0,7.0,44,0.00,,,0.00,weatherlink.com 1.10,2013-05-16 18:23:00,
2013-05-16 10:38:00,45.2,24.0,29.59,SE,127,1.0,8.0,43,0.00,,,0.00,weatherlink.com 1.10,2013-05-16 18:38:00,
2013-05-16 10:55:00,45.6,24.0,29.59,SSE,150,4.0,10.0,42,0.00,,,0.00,weatherlink.com 1.10,2013-05-16 18:55:00,
2013-05-16 11:08:00,46.3,22.0,29.58,South,184,2.0,7.0,39,0.00,,,0.00,weatherlink.com 1.10,2013-05-16 19:08:00,
2013-05-16 11:23:00,46.1,24.0,29.58,SE,139,4.0,7.0,42,0.00,,,0.00,weatherlink.com 1.10,2013-05-16 19:23:00,
2013-05-16 11:38:00,46.7,23.0,29.57,West,266,3.0,9.0,39,0.00,,,0.00,weatherlink.com 1.10,2013-05-16 19:38:00,
2013-05-16 11:53:00,47.0,22.0,29.57,ENE,65,4.0,8.0,37,0.00,,,0.00,weatherlink.com 1.10,2013-05-16 19:53:00,
2013-05-16 12:08:00,47.5,22.0,29.55,SSE,155,4.0,10.0,37,0.00,,,0.00,weatherlink.com 1.10,2013-05-16 20:08:00,
2013-05-16 12:23:00,47.5,23.0,29.55,SE,146,1.0,10.0,39,0.00,,,0.00,weatherlink.com 1.10,2013-05-16 20:23:00,
2013-05-16 12:38:00,47.0,21.0,29.54,ESE,115,7.0,12.0,36,0.00,,,0.00,weatherlink.com 1.10,2013-05-16 20:38:00,
2013-05-16 12:53:00,47.4,20.0,29.54,SSW,210,3.0,12.0,34,0.00,,,0.00,weatherlink.com 1.10,2013-05-16 20:53:00,
2013-05-16 13:08:00,47.9,21.0,29.53,SSW,203,5.0,10.0,34,0.00,,,0.00,weatherlink.com 1.10,2013-05-16 21:08:00,
2013-05-16 13:23:00,48.9,21.0,29.52,SSW,212,5.0,9.0,33,0.00,,,0.00,weatherlink.com 1.10,2013-05-16 21:23:00,
2013-05-16 13:38:00,48.5,20.0,29.52,East,84,6.0,12.0,32,0.00,,,0.00,weatherlink.com 1.10,2013-05-16 21:38:00,
2013-05-16 13:53:00,50.0,21.0,29.51,South,189,2.0,8.0,32,0.00,,,0.00,weatherlink.com 1.10,2013-05-16 21:53:00,
2013-05-16 14:08:00,49.3,21.0,29.50,ESE,110,3.0,12.0,33,0.00,,,0.00,weatherlink.com 1.10,2013-05-16 22:08:00,
2013-05-16 14:23:00,49.5,20.0,29.50,SE,129,5.0,10.0,31,0.00,,,0.00,weatherlink.com 1.10,2013-05-16 22:23:00,
2013-05-16 14:38:00,50.3,21.0,29.50,SSE,155,2.0,9.0,31,0.00,,,0.00,weatherlink.com 1.10,2013-05-16 22:38:00,
2013-05-16 14:53:00,50.5,19.0,29.49,ESE,111,2.0,10.0,29,0.00,,,0.00,weatherlink.com 1.10,2013-05-16 22:53:00,
2013-05-16 15:08:00,49.6,20.0,29.49,SE,146,6.0,12.0,31,0.00,,,0.00,weatherlink.com 1.10,2013-05-16 23:08:00,
2013-05-16 15:23:00,49.3,22.0,29.49,NE,40,7.0,12.0,34,0.00,,,0.00,weatherlink.com 1.10,2013-05-16 23:23:00,
2013-05-16 15:38:00,49.0,23.0,29.49,SSE,148,4.0,9.0,36,0.00,,,0.00,weatherlink.com 1.10,2013-05-16 23:38:00,
2013-05-16 15:53:00,48.0,23.0,29.49,South,191,4.0,12.0,38,0.00,,,0.00,weatherlink.com 1.10,2013-05-16 23:53:00,
2013-05-16 16:08:00,48.0,23.0,29.48,SW,215,3.0,11.0,38,0.00,,,0.00,weatherlink.com 1.10,2013-05-17 00:08:00,
2013-05-16 16:23:00,47.7,24.0,29.48,SSE,165,2.0,12.0,39,0.00,,,0.00,weatherlink.com 1.10,2013-05-17 00:23:00,
2013-05-16 16:38:00,47.3,23.0,29.49,SSE,157,4.0,15.0,39,0.00,,,0.00,weatherlink.com 1.10,2013-05-17 00:38:00,
2013-05-16 16:53:00,47.3,23.0,29.48,SE,138,4.0,11.0,38,0.00,,,0.00,weatherlink.com 1.10,2013-05-17 00:53:00,
2013-05-16 17:08:00,47.3,23.0,29.48,SSE,163,3.0,15.0,38,0.00,,,0.00,weatherlink.com 1.10,2013-05-17 01:08:00,
2013-05-16 17:24:00,47.3,24.0,29.47,ESE,114,2.0,6.0,40,0.00,,,0.00,weatherlink.com 1.10,2013-05-17 01:24:00,
2013-05-16 17:39:00,47.3,24.0,29.47,ESE,122,5.0,8.0,40,0.00,,,0.00,weatherlink.com 1.10,2013-05-17 01:39:00,
2013-05-16 17:54:00,46.6,24.0,29.46,West,274,0.0,9.0,41,0.00,,,0.00,weatherlink.com 1.10,2013-05-17 01:54:00,
2013-05-16 18:09:00,46.7,23.0,29.45,West,267,0.0,3.0,40,0.00,,,0.00,weatherlink.com 1.10,2013-05-17 02:09:00,
2013-05-16 18:24:00,46.7,23.0,29.45,NW,313,0.0,2.0,40,0.00,,,0.00,weatherlink.com 1.10,2013-05-17 02:24:00,
2013-05-16 18:39:00,47.0,24.0,29.45,NW,312,0.0,0.0,40,0.00,,,0.00,weatherlink.com 1.10,2013-05-17 02:39:00,
2013-05-16 18:54:00,46.8,23.0,29.44,North,350,1.0,3.0,40,0.00,,,0.00,weatherlink.com 1.10,2013-05-17 02:54:00,
2013-05-16 19:09:00,46.7,24.0,29.44,West,260,0.0,1.0,41,0.00,,,0.00,weatherlink.com 1.10,2013-05-17 03:09:00,
2013-05-16 19:24:00,46.7,26.0,29.44,WSW,252,0.0,1.0,44,0.00,,,0.00,weatherlink.com 1.10,2013-05-17 03:24:00,
2013-05-16 19:39:00,46.5,26.0,29.44,SW,235,0.0,3.0,45,0.00,,,0.00,weatherlink.com 1.10,2013-05-17 03:39:00,
2013-05-16 19:54:00,46.1,26.0,29.44,WNW,302,0.0,5.0,46,0.00,,,0.00,weatherlink.com 1.10,2013-05-17 03:54:00,
2013-05-16 20:09:00,45.9,25.0,29.43,WSW,238,0.0,1.0,45,0.00,,,0.00,weatherlink.com 1.10,2013-05-17 04:09:00,
2013-05-16 20:24:00,45.6,26.0,29.43,NW,316,0.0,0.0,46,0.00,,,0.00,weatherlink.com 1.10,2013-05-17 04:24:00,
2013-05-16 20:39:00,45.0,26.0,29.43,NE,42,0.0,2.0,47,0.00,,,0.00,weatherlink.com 1.10,2013-05-17 04:39:00,
2013-05-16 20:54:00,44.8,26.0,29.43,West,271,0.0,1.0,48,0.00,,,0.00,weatherlink.com 1.10,2013-05-17 04:54:00,
2013-05-16 21:09:00,44.4,26.0,29.42,SW,235,0.0,2.0,48,0.00,,,0.00,weatherlink.com 1.10,2013-05-17 05:09:00,
2013-05-16 21:24:00,43.9,27.0,29.43,WSW,248,0.0,1.0,51,0.00,,,0.00,weatherlink.com 1.10,2013-05-17 05:24:00,
2013-05-16 21:39:00,43.4,27.0,29.43,SSE,153,0.0,0.0,52,0.00,,,0.00,weatherlink.com 1.10,2013-05-17 05:39:00,
2013-05-16 21:54:00,43.0,26.0,29.42,ENE,58,0.0,0.0,52,0.00,,,0.00,weatherlink.com 1.10,2013-05-17 05:54:00,
2013-05-16 22:09:00,43.3,26.0,29.42,NNW,337,0.0,2.0,51,0.00,,,0.00,weatherlink.com 1.10,2013-05-17 06:09:00,
2013-05-16 22:24:00,43.0,27.0,29.42,West,274,0.0,2.0,53,0.00,,,0.00,weatherlink.com 1.10,2013-05-17 06:24:00,
2013-05-16 22:39:00,42.4,26.0,29.42,NE,43,0.0,1.0,53,0.00,,,0.00,weatherlink.com 1.10,2013-05-17 06:39:00,
2013-05-16 22:54:00,42.2,27.0,29.41,NNW,346,1.0,1.0,55,0.00,,,0.00,weatherlink.com 1.10,2013-05-17 06:54:00,
2013-05-16 23:09:00,42.1,27.0,29.41,NE,48,1.0,2.0,55,0.00,,,0.00,weatherlink.com 1.10,2013-05-17 07:09:00,
2013-05-16 23:24:00,42.4,27.0,29.41,NE,55,1.0,3.0,54,0.00,,,0.00,weatherlink.com 1.10,2013-05-17 07:24:00,
2013-05-16 23:39:00,41.4,27.0,29.40,North,352,0.0,1.0,58,0.00,,,0.00,weatherlink.com 1.10,2013-05-17 07:39:00,
2013-05-16 23:54:00,41.1,28.0,29.40,SE,141,0.0,3.0,61,0.00,,,0.00,weatherlink.com 1.10,2013-05-17 07:54:00,